Sitka, AK

5:42 AM AKDT on May 30, 2017 (GMT -0800)
Sitka Rocky Gutierrez

Weather History for PASI - October, 2012

Change the Weather History Date:

Sunday, October 21, 2012

  Actual Average Record
Temperature  
Mean Temperature 38 °F -  
Max Temperature 42 °F 48 °F 56 °F (1952)
Min Temperature 32 °F 40 °F 31 °F (1991)
Degree Days  
Heating Degree Days 28    
Moisture  
Dew Point 18 °F    
Average Humidity 46    
Maximum Humidity 64    
Minimum Humidity 35    
Precipitation  
Precipitation 0.00 in - - ()
Sea Level Pressure  
Sea Level Pressure 30.02 in    
Wind  
Wind Speed 5 mph (ENE)    
Max Wind Speed 10 mph    
Max Gust Speed 18 mph    
Visibility 10 miles    
Events      
Averages and records for this station are not official NWS values.
T = Trace of Precipitation, MM = Missing Value Source: NWS Daily Summary

Daily Weather History Graph

Daily Weather History Graph

Search for Another Location

Airport or City:

Trip Planner

Search our weather history database for the weather conditions in past years. The results will help you decide how hot, cold, wet, or windy it might be!

Date:

Astronomy

Oct. 21, 2012 Rise Set
Actual Time 7:49 AM AKDT 5:41 PM AKDT
Civil Twilight 7:09 AM AKDT 6:21 PM AKDT
Nautical Twilight 6:25 AM AKDT 7:05 PM AKDT
Astronomical Twilight 5:40 AM AKDT 7:49 PM AKDT
Moon 2:38 PM AKDT (10/21) 11:26 PM AKDT (10/21)
Length of Visible Light 11h 11m
Length of Day
9h 52m
Waxing Crescent, 47% of the Moon is Illuminated
Oct 21
Waxing Crescent
Oct 21
First Quarter
Oct 29
Full
Nov 6
Last Quarter
Nov 13
New

Hourly Weather History & Observations

Time (AKDT) Temp. Windchill Dew Point Humidity Pressure Visibility Wind Dir Wind Speed Gust Speed Precip Events Conditions
12:53 AM 37.0 °F 33.3 °F 18.0 °F 46% 29.94 in 10.0 mi East 4.6 mph - N/A   Clear
1:53 AM 37.4 °F 33.8 °F 17.6 °F 45% 29.94 in 10.0 mi East 4.6 mph - N/A   Clear
2:53 AM 36.0 °F 33.3 °F 17.1 °F 46% 29.95 in 10.0 mi NE 3.5 mph - N/A   Clear
3:53 AM 35.1 °F 32.2 °F 17.1 °F 48% 29.96 in 10.0 mi East 3.5 mph - N/A   Clear
4:53 AM 36.0 °F 32.1 °F 16.0 °F 44% 29.97 in 10.0 mi Variable 4.6 mph - N/A   Clear
5:53 AM 35.1 °F 31.0 °F 17.1 °F 48% 29.98 in 10.0 mi East 4.6 mph - N/A   Clear
6:53 AM 35.1 °F 32.2 °F 17.1 °F 48% 29.99 in 10.0 mi ENE 3.5 mph - N/A   Clear
7:53 AM 36.0 °F 32.1 °F 19.9 °F 52% 30.00 in 10.0 mi Variable 4.6 mph - N/A   Clear
8:53 AM 37.0 °F 32.4 °F 16.0 °F 42% 30.01 in 10.0 mi Variable 5.8 mph - N/A   Clear
9:53 AM 39.9 °F 35.1 °F 16.0 °F 38% 30.02 in 10.0 mi NNE 6.9 mph - N/A   Clear
10:53 AM 41.0 °F 36.4 °F 17.1 °F 38% 30.02 in 10.0 mi NE 6.9 mph - N/A   Clear
11:53 AM 41.0 °F 36.4 °F 15.1 °F 35% 30.03 in 10.0 mi ENE 6.9 mph - N/A   Clear
12:53 PM 42.1 °F 36.6 °F 17.1 °F 37% 30.03 in 10.0 mi ENE 9.2 mph - N/A   Clear
1:53 PM 42.1 °F 36.1 °F 16.0 °F 35% 30.04 in 10.0 mi East 10.4 mph 18.4 mph N/A   Clear
2:53 PM 42.1 °F 37.1 °F 16.0 °F 35% 30.04 in 10.0 mi ENE 8.1 mph - N/A   Clear
3:53 PM 41.0 °F 36.4 °F 15.1 °F 35% 30.04 in 10.0 mi ENE 6.9 mph - N/A   Clear
4:53 PM 39.9 °F 36.7 °F 15.1 °F 36% 30.05 in 10.0 mi NE 4.6 mph - N/A   Clear
5:53 PM 37.9 °F 35.5 °F 16.0 °F 41% 30.05 in 10.0 mi East 3.5 mph - N/A   Clear
6:53 PM 34.0 °F 29.8 °F 21.0 °F 59% 30.06 in 10.0 mi ENE 4.6 mph - N/A   Clear
7:53 PM 37.0 °F - 18.0 °F 46% 30.06 in 10.0 mi Calm Calm - N/A   Clear
8:53 PM 35.1 °F - 21.9 °F 59% 30.06 in 10.0 mi Calm Calm - N/A   Clear
9:53 PM 33.1 °F - 21.0 °F 61% 30.06 in 10.0 mi Calm Calm - N/A   Clear
10:53 PM 35.1 °F - 21.9 °F 59% 30.07 in 10.0 mi Calm Calm - N/A   Clear
11:53 PM 32.0 °F 27.5 °F 21.0 °F 64% 30.07 in 10.0 mi NE 4.6 mph - N/A   Clear